This is the latest recevied weather packets stored in our database for station/object OE2WNL. If no packets are shown the sender has not sent any weather packets the latest 10 day(s).
| Time | Temp. | Humidity | Pressure | Rain* | Wind** | Luminosity | Snow |
|---|---|---|---|---|---|---|---|
| 1788542019 | 27.22° C | 40% | 1012.6 hPa | 0 mm | - | - | - |
| 1788541709 | 27.22° C | 40% | 1012.9 hPa | 0 mm | - | - | - |
| 1788541400 | 27.78° C | 39% | 1012.8 hPa | 0 mm | - | - | - |
| 1788541100 | 27.22° C | 38% | 1012.6 hPa | 0 mm | - | - | - |
| 1788540800 | 28.33° C | 37% | 1012.6 hPa | 0 mm | - | - | - |
| 1788540500 | 29.44° C | 35% | 1012.4 hPa | 0 mm | - | - | - |
| 1788540200 | 28.89° C | 34% | 1012.4 hPa | 0 mm | - | - | - |
| 1788539900 | 30° C | 34% | 1012.1 hPa | 0 mm | - | - | - |
| 1788539590 | 29.44° C | 33% | 1012.2 hPa | 0 mm | - | - | - |
| 1788539290 | 30° C | 35% | 1012.4 hPa | 0 mm | - | - | - |
| 1788538980 | 29.44° C | 33% | 1012.4 hPa | 0 mm | - | - | - |
| 1788538670 | 29.44° C | 32% | 1012.6 hPa | 0 mm | - | - | - |
| 1788538370 | 30° C | 33% | 1012.2 hPa | 0 mm | - | - | - |
| 1788538070 | 30° C | 33% | 1012.2 hPa | 0 mm | - | - | - |
| 1788537769 | 29.44° C | 32% | 1012.3 hPa | 0 mm | - | - | - |
| 1788537469 | 29.44° C | 33% | 1012.4 hPa | 0 mm | - | - | - |
| 1788537169 | 29.44° C | 34% | 1012.6 hPa | 0 mm | - | - | - |
| 1788536869 | 30° C | 32% | 1012.5 hPa | 0 mm | - | - | - |
| 1788536560 | 30° C | 31% | 1012.4 hPa | 0 mm | - | - | - |
| 1788536250 | 30.56° C | 31% | 1012.5 hPa | 0 mm | - | - | - |
| 1788535940 | 30.56° C | 30% | 1012.3 hPa | 0 mm | - | - | - |
| 1788535640 | 30.56° C | 29% | 1012.4 hPa | 0 mm | - | - | - |
| 1788535340 | 31.11° C | 29% | 1012.6 hPa | 0 mm | - | - | - |
| 1788535040 | 31.11° C | 27% | 1012.4 hPa | 0 mm | - | - | - |
| 1788534730 | 30° C | 25% | 1012.7 hPa | 0 mm | - | - | - |
* Rain latest hour (hover to see other rain measurements)
** Current wind speed in m/s (hover to see current wind gust speed)